Time,TemperatureF,DewpointF,PressureIn,WindDirection,WindDirectionDegrees,WindSpeedMPH,WindSpeedGustMPH,Humidity,HourlyPrecipIn,Conditions,Clouds,dailyrainin,SoftwareType,DateUTC
2013-05-22 00:01:00,57.3,56.5,29.56,East,81,0.0,0.0,97,0.00,,SKC,0.00,VWS V14.01,2013-05-22 05:01:00,
2013-05-22 00:07:00,57.1,56.3,29.56,NE,51,0.0,0.0,97,0.00,,SKC,0.00,VWS V14.01,2013-05-22 05:07:00,
2013-05-22 00:12:00,56.9,56.1,29.56,NW,323,0.0,0.0,97,0.00,,SKC,0.00,VWS V14.01,2013-05-22 05:12:00,
2013-05-22 00:17:00,56.8,56.0,29.56,NE,47,0.0,0.0,97,0.00,,SKC,0.00,VWS V14.01,2013-05-22 05:17:00,
2013-05-22 00:22:00,56.6,55.8,29.56,NE,47,0.0,0.0,97,0.00,,SKC,0.00,VWS V14.01,2013-05-22 05:22:00,
2013-05-22 00:27:00,56.4,55.6,29.56,NNW,333,0.0,0.0,97,0.00,,SKC,0.00,VWS V14.01,2013-05-22 05:27:00,
2013-05-22 00:32:00,56.3,55.5,29.56,NE,44,0.0,0.0,97,0.00,,SKC,0.00,VWS V14.01,2013-05-22 05:32:00,
2013-05-22 00:37:00,56.2,55.7,29.56,NNE,22,0.0,0.0,98,0.00,,SKC,0.00,VWS V14.01,2013-05-22 05:37:00,
2013-05-22 00:42:00,56.0,55.5,29.56,NNE,21,0.0,0.0,98,0.00,,SKC,0.00,VWS V14.01,2013-05-22 05:42:00,
2013-05-22 00:47:00,55.9,55.3,29.56,East,100,0.0,0.0,98,0.00,,SKC,0.00,VWS V14.01,2013-05-22 05:47:00,
2013-05-22 00:52:00,55.5,54.7,29.56,NW,325,0.0,1.0,97,0.00,,SKC,0.00,VWS V14.01,2013-05-22 05:52:00,
2013-05-22 00:57:00,55.3,54.5,29.56,NW,315,0.0,0.0,97,0.00,,SKC,0.00,VWS V14.01,2013-05-22 05:57:00,
2013-05-22 01:02:00,55.1,54.3,29.55,NNE,22,0.0,0.0,97,0.00,,SKC,0.00,VWS V14.01,2013-05-22 06:02:00,
2013-05-22 01:07:00,54.9,54.1,29.55,North,355,0.0,0.0,97,0.00,,SKC,0.00,VWS V14.01,2013-05-22 06:07:00,
2013-05-22 01:12:00,54.8,54.0,29.55,North,351,0.0,0.0,97,0.00,,SKC,0.00,VWS V14.01,2013-05-22 06:12:00,
2013-05-22 01:17:00,54.6,54.0,29.55,NE,55,0.0,0.0,98,0.00,,SKC,0.00,VWS V14.01,2013-05-22 06:17:00,
2013-05-22 01:22:00,54.5,54.0,29.55,NE,53,0.0,0.0,98,0.00,,SKC,0.00,VWS V14.01,2013-05-22 06:22:00,
2013-05-22 01:27:00,54.4,53.8,29.55,NE,53,0.0,0.0,98,0.00,,SKC,0.00,VWS V14.01,2013-05-22 06:27:00,
2013-05-22 01:32:00,54.4,53.8,29.55,NE,52,0.0,0.0,98,0.00,,SKC,0.00,VWS V14.01,2013-05-22 06:32:00,
2013-05-22 01:37:00,54.2,53.7,29.55,NNE,24,2.0,2.0,98,0.00,,SKC,0.00,VWS V14.01,2013-05-22 06:37:00,
2013-05-22 01:42:00,54.0,53.5,29.55,East,98,0.0,2.0,98,0.00,,SKC,0.00,VWS V14.01,2013-05-22 06:42:00,
2013-05-22 01:47:00,53.8,53.2,29.55,NW,307,0.0,0.0,98,0.00,,SKC,0.00,VWS V14.01,2013-05-22 06:47:00,
2013-05-22 01:52:00,53.7,53.2,29.55,NE,40,0.0,0.0,98,0.00,,SKC,0.00,VWS V14.01,2013-05-22 06:52:00,
2013-05-22 01:57:00,53.5,53.0,29.55,NNE,22,0.0,0.0,98,0.00,,SKC,0.00,VWS V14.01,2013-05-22 06:57:00,
2013-05-22 02:02:00,53.2,52.7,29.55,ENE,61,0.0,0.0,98,0.00,,SKC,0.00,VWS V14.01,2013-05-22 07:02:00,
2013-05-22 02:07:00,52.9,52.3,29.55,NE,55,0.0,0.0,98,0.00,,SKC,0.00,VWS V14.01,2013-05-22 07:07:00,
2013-05-22 02:12:00,52.7,52.2,29.55,East,93,0.0,0.0,98,0.00,,SKC,0.00,VWS V14.01,2013-05-22 07:12:00,
2013-05-22 02:17:00,52.4,51.8,29.56,East,97,2.0,2.0,98,0.00,,SKC,0.00,VWS V14.01,2013-05-22 07:17:00,
2013-05-22 02:22:00,52.1,51.5,29.56,ESE,102,1.0,2.0,98,0.00,,SKC,0.00,VWS V14.01,2013-05-22 07:22:00,
2013-05-22 02:28:00,52.0,51.5,29.56,East,84,0.0,1.0,98,0.00,,SKC,0.00,VWS V14.01,2013-05-22 07:28:00,
2013-05-22 02:33:00,52.0,51.5,29.56,East,84,0.0,1.0,98,0.00,,SKC,0.00,VWS V14.01,2013-05-22 07:33:00,
2013-05-22 02:38:00,51.9,51.4,29.56,NE,55,0.0,1.0,98,0.00,,SKC,0.00,VWS V14.01,2013-05-22 07:38:00,
2013-05-22 02:43:00,51.8,51.3,29.56,ENE,57,0.0,1.0,98,0.00,,SKC,0.00,VWS V14.01,2013-05-22 07:43:00,
2013-05-22 02:48:00,51.7,51.2,29.56,NW,325,0.0,0.0,98,0.00,,SKC,0.00,VWS V14.01,2013-05-22 07:48:00,
2013-05-22 02:53:00,51.7,51.2,29.56,NW,324,0.0,0.0,98,0.00,,SKC,0.00,VWS V14.01,2013-05-22 07:53:00,
2013-05-22 02:58:00,51.4,50.9,29.56,NNE,15,0.0,0.0,98,0.00,,SKC,0.00,VWS V14.01,2013-05-22 07:58:00,
2013-05-22 03:03:00,51.2,50.7,29.57,WSW,245,0.0,0.0,98,0.00,,SKC,0.00,VWS V14.01,2013-05-22 08:03:00,
2013-05-22 03:08:00,51.1,50.6,29.57,WSW,245,0.0,0.0,98,0.00,,SKC,0.00,VWS V14.01,2013-05-22 08:08:00,
2013-05-22 03:13:00,50.8,50.3,29.57,ENE,78,0.0,2.0,98,0.00,,SKC,0.00,VWS V14.01,2013-05-22 08:13:00,
2013-05-22 03:18:00,50.7,50.2,29.57,NNW,348,1.0,1.0,98,0.00,,SKC,0.00,VWS V14.01,2013-05-22 08:18:00,
2013-05-22 03:23:00,50.5,50.0,29.57,NE,43,0.0,2.0,98,0.00,,SKC,0.00,VWS V14.01,2013-05-22 08:23:00,
2013-05-22 03:28:00,50.4,49.9,29.57,NNE,30,0.0,0.0,98,0.00,,SKC,0.00,VWS V14.01,2013-05-22 08:28:00,
2013-05-22 03:33:00,50.3,49.8,29.58,NW,323,0.0,0.0,98,0.00,,SKC,0.00,VWS V14.01,2013-05-22 08:33:00,
2013-05-22 03:38:00,50.2,49.7,29.58,WSW,253,0.0,0.0,98,0.00,,SKC,0.00,VWS V14.01,2013-05-22 08:38:00,
2013-05-22 03:43:00,50.0,49.5,29.58,East,88,0.0,0.0,98,0.00,,SKC,0.00,VWS V14.01,2013-05-22 08:43:00,
2013-05-22 03:48:00,50.0,49.5,29.58,East,87,0.0,0.0,98,0.00,,SKC,0.00,VWS V14.01,2013-05-22 08:48:00,
2013-05-22 03:53:00,49.9,49.4,29.58,NNE,20,0.0,0.0,98,0.00,,SKC,0.00,VWS V14.01,2013-05-22 08:53:00,
2013-05-22 03:58:00,49.7,49.2,29.58,NE,37,0.0,0.0,98,0.00,,SKC,0.00,VWS V14.01,2013-05-22 08:58:00,
2013-05-22 04:03:00,49.7,49.2,29.58,NE,38,0.0,0.0,98,0.00,,SKC,0.00,VWS V14.01,2013-05-22 09:03:00,
2013-05-22 04:08:00,49.7,49.2,29.58,NNE,20,0.0,0.0,98,0.00,,SKC,0.00,VWS V14.01,2013-05-22 09:08:00,
2013-05-22 04:13:00,49.6,49.1,29.58,West,281,0.0,0.0,98,0.00,,SKC,0.00,VWS V14.01,2013-05-22 09:13:00,
2013-05-22 04:18:00,49.6,49.1,29.58,West,281,0.0,0.0,98,0.00,,SKC,0.00,VWS V14.01,2013-05-22 09:18:00,
2013-05-22 04:23:00,49.3,48.8,29.58,NNW,341,0.0,3.0,98,0.00,,SKC,0.00,VWS V14.01,2013-05-22 09:23:00,
2013-05-22 04:28:00,49.2,48.7,29.58,NNW,342,0.0,1.0,98,0.00,,SKC,0.00,VWS V14.01,2013-05-22 09:28:00,
2013-05-22 04:33:00,49.1,48.6,29.58,West,275,0.0,1.0,98,0.00,,SKC,0.00,VWS V14.01,2013-05-22 09:33:00,
2013-05-22 04:38:00,48.9,48.4,29.58,NNE,30,0.0,2.0,98,0.00,,SKC,0.00,VWS V14.01,2013-05-22 09:38:00,
2013-05-22 04:44:00,48.9,48.4,29.58,NE,38,0.0,0.0,98,0.00,,SKC,0.00,VWS V14.01,2013-05-22 09:44:00,
2013-05-22 04:49:00,48.8,48.3,29.58,NE,36,1.0,1.0,98,0.00,,SKC,0.00,VWS V14.01,2013-05-22 09:49:00,
2013-05-22 04:54:00,48.7,48.2,29.58,ENE,59,1.0,3.0,98,0.00,,SKC,0.00,VWS V14.01,2013-05-22 09:54:00,
2013-05-22 04:59:00,48.4,47.9,29.58,NNE,28,1.0,2.0,98,0.00,,SKC,0.00,VWS V14.01,2013-05-22 09:59:00,
2013-05-22 05:04:00,48.3,47.8,29.58,ENE,71,0.0,2.0,98,0.00,,SKC,0.00,VWS V14.01,2013-05-22 10:04:00,
2013-05-22 05:09:00,48.3,47.8,29.58,South,171,0.0,0.0,98,0.00,,SKC,0.00,VWS V14.01,2013-05-22 10:09:00,
2013-05-22 05:14:00,48.3,47.8,29.58,NE,54,0.0,2.0,98,0.00,,SKC,0.00,VWS V14.01,2013-05-22 10:14:00,
2013-05-22 05:19:00,48.0,47.5,29.58,ENE,70,1.0,6.0,98,0.01,,SKC,0.01,VWS V14.01,2013-05-22 10:19:00,
2013-05-22 05:24:00,47.9,47.4,29.58,NE,54,0.0,1.0,98,0.01,,SKC,0.01,VWS V14.01,2013-05-22 10:24:00,
2013-05-22 05:29:00,48.0,47.5,29.58,NE,53,0.0,0.0,98,0.01,,SKC,0.01,VWS V14.01,2013-05-22 10:29:00,
2013-05-22 05:34:00,48.1,47.6,29.58,NE,44,0.0,0.0,98,0.01,,SKC,0.01,VWS V14.01,2013-05-22 10:34:00,
2013-05-22 05:39:00,47.9,47.4,29.58,NNE,30,0.0,0.0,98,0.01,,SKC,0.01,VWS V14.01,2013-05-22 10:39:00,
2013-05-22 05:44:00,47.9,47.4,29.58,NE,34,0.0,0.0,98,0.01,,SKC,0.01,VWS V14.01,2013-05-22 10:44:00,
2013-05-22 05:49:00,48.0,47.5,29.58,NE,51,0.0,0.0,98,0.01,,SKC,0.01,VWS V14.01,2013-05-22 10:49:00,
2013-05-22 05:54:00,47.9,47.4,29.58,ENE,68,0.0,0.0,98,0.01,,SKC,0.01,VWS V14.01,2013-05-22 10:54:00,
2013-05-22 05:59:00,48.0,47.5,29.58,ENE,68,0.0,0.0,98,0.01,,SKC,0.01,VWS V14.01,2013-05-22 10:59:00,
2013-05-22 06:04:00,48.1,47.6,29.58,South,173,0.0,0.0,98,0.01,,SKC,0.01,VWS V14.01,2013-05-22 11:04:00,
2013-05-22 06:09:00,48.2,47.7,29.58,South,174,0.0,0.0,98,0.01,,SKC,0.01,VWS V14.01,2013-05-22 11:09:00,
2013-05-22 06:14:00,48.1,47.6,29.58,East,94,0.0,3.0,98,0.01,,SKC,0.01,VWS V14.01,2013-05-22 11:14:00,
2013-05-22 06:19:00,48.2,47.7,29.58,East,93,0.0,1.0,98,0.01,,SKC,0.01,VWS V14.01,2013-05-22 11:19:00,
2013-05-22 06:24:00,48.3,47.8,29.58,East,93,0.0,0.0,98,0.00,,SKC,0.01,VWS V14.01,2013-05-22 11:24:00,
2013-05-22 06:29:00,48.4,47.9,29.59,ENE,63,3.0,3.0,98,0.00,,SKC,0.01,VWS V14.01,2013-05-22 11:29:00,
2013-05-22 06:34:00,48.4,47.9,29.59,East,87,0.0,2.0,98,0.00,,SKC,0.01,VWS V14.01,2013-05-22 11:34:00,
2013-05-22 06:39:00,48.3,47.8,29.59,NW,321,0.0,3.0,98,0.00,,SKC,0.01,VWS V14.01,2013-05-22 11:39:00,
2013-05-22 06:44:00,48.4,47.9,29.59,NNE,20,0.0,2.0,98,0.00,,SKC,0.01,VWS V14.01,2013-05-22 11:44:00,
2013-05-22 06:49:00,48.5,48.0,29.59,East,84,2.0,4.0,98,0.00,,SKC,0.01,VWS V14.01,2013-05-22 11:49:00,
2013-05-22 06:54:00,48.5,48.0,29.59,ENE,78,0.0,1.0,98,0.00,,SKC,0.01,VWS V14.01,2013-05-22 11:54:00,
2013-05-22 06:59:00,48.5,48.0,29.60,ENE,68,0.0,1.0,98,0.00,,SKC,0.01,VWS V14.01,2013-05-22 11:59:00,
2013-05-22 07:04:00,48.7,48.4,29.60,ENE,68,0.0,0.0,99,0.00,,SKC,0.01,VWS V14.01,2013-05-22 12:04:00,
2013-05-22 07:09:00,48.7,48.4,29.60,ENE,78,0.0,2.0,99,0.00,,SKC,0.01,VWS V14.01,2013-05-22 12:09:00,
2013-05-22 07:14:00,48.8,48.5,29.60,North,355,0.0,0.0,99,0.00,,SKC,0.01,VWS V14.01,2013-05-22 12:14:00,
2013-05-22 07:19:00,48.8,48.5,29.60,NNE,32,0.0,2.0,99,0.00,,SKC,0.01,VWS V14.01,2013-05-22 12:19:00,
2013-05-22 07:24:00,48.9,48.6,29.60,NNE,19,0.0,0.0,99,0.00,,SKC,0.01,VWS V14.01,2013-05-22 12:24:00,
2013-05-22 07:29:00,49.1,48.8,29.60,NNW,344,1.0,1.0,99,0.00,,SKC,0.01,VWS V14.01,2013-05-22 12:29:00,
2013-05-22 07:34:00,49.1,48.8,29.60,NE,36,0.0,1.0,99,0.00,,SKC,0.01,VWS V14.01,2013-05-22 12:34:00,
2013-05-22 07:39:00,49.2,48.9,29.60,East,89,0.0,0.0,99,0.00,,SKC,0.01,VWS V14.01,2013-05-22 12:39:00,
2013-05-22 07:45:00,49.3,49.0,29.59,ENE,69,0.0,0.0,99,0.00,,SKC,0.01,VWS V14.01,2013-05-22 12:45:00,
2013-05-22 07:50:00,49.5,49.2,29.59,West,271,0.0,2.0,99,0.00,,SKC,0.01,VWS V14.01,2013-05-22 12:50:00,
2013-05-22 07:55:00,49.8,49.5,29.59,ENE,74,0.0,2.0,99,0.00,,SKC,0.01,VWS V14.01,2013-05-22 12:55:00,
2013-05-22 08:00:00,50.1,49.8,29.59,NW,326,0.0,0.0,99,0.00,,SKC,0.01,VWS V14.01,2013-05-22 13:00:00,
2013-05-22 08:05:00,50.2,49.9,29.59,NNE,17,0.0,0.0,99,0.00,,SKC,0.01,VWS V14.01,2013-05-22 13:05:00,
2013-05-22 08:10:00,50.4,50.1,29.59,NNE,28,1.0,1.0,99,0.00,,SKC,0.01,VWS V14.01,2013-05-22 13:10:00,
2013-05-22 08:15:00,50.3,50.0,29.59,East,90,1.0,3.0,99,0.00,,SKC,0.01,VWS V14.01,2013-05-22 13:15:00,
2013-05-22 08:20:00,50.2,49.9,29.59,North,5,0.0,0.0,99,0.00,,SKC,0.01,VWS V14.01,2013-05-22 13:20:00,
2013-05-22 08:25:00,50.4,50.1,29.59,NNE,17,0.0,0.0,99,0.00,,SKC,0.01,VWS V14.01,2013-05-22 13:25:00,
2013-05-22 08:30:00,50.6,50.3,29.59,NNE,15,0.0,1.0,99,0.00,,SKC,0.01,VWS V14.01,2013-05-22 13:30:00,
2013-05-22 08:35:00,50.7,50.4,29.59,NNW,334,1.0,1.0,99,0.00,,SKC,0.01,VWS V14.01,2013-05-22 13:35:00,
2013-05-22 08:40:00,50.6,50.3,29.59,NW,321,0.0,3.0,99,0.00,,SKC,0.01,VWS V14.01,2013-05-22 13:40:00,
2013-05-22 08:45:00,50.7,50.2,29.60,NNE,32,1.0,2.0,98,0.00,,SKC,0.01,VWS V14.01,2013-05-22 13:45:00,
2013-05-22 08:50:00,50.7,50.2,29.60,NE,53,0.0,3.0,98,0.00,,SKC,0.01,VWS V14.01,2013-05-22 13:50:00,
2013-05-22 08:55:00,50.7,50.2,29.60,ENE,72,1.0,3.0,98,0.00,,SKC,0.01,VWS V14.01,2013-05-22 13:55:00,
2013-05-22 09:00:00,50.8,50.3,29.60,East,89,3.0,3.0,98,0.00,,SKC,0.01,VWS V14.01,2013-05-22 14:00:00,
2013-05-22 09:05:00,50.6,50.1,29.60,NE,43,1.0,4.0,98,0.00,,SKC,0.01,VWS V14.01,2013-05-22 14:05:00,
2013-05-22 09:10:00,50.7,50.2,29.60,NNE,32,1.0,2.0,98,0.00,,SKC,0.01,VWS V14.01,2013-05-22 14:10:00,
2013-05-22 09:15:00,50.8,50.3,29.60,ENE,68,0.0,3.0,98,0.00,,SKC,0.01,VWS V14.01,2013-05-22 14:15:00,
2013-05-22 09:20:00,51.1,50.6,29.60,East,82,0.0,0.0,98,0.00,,SKC,0.01,VWS V14.01,2013-05-22 14:20:00,
2013-05-22 09:25:00,51.5,51.0,29.60,NNW,348,0.0,0.0,98,0.00,,SKC,0.01,VWS V14.01,2013-05-22 14:25:00,
2013-05-22 09:30:00,51.4,50.9,29.59,ENE,78,0.0,3.0,98,0.00,,SKC,0.01,VWS V14.01,2013-05-22 14:30:00,
2013-05-22 09:35:00,51.5,51.0,29.59,NE,52,0.0,3.0,98,0.00,,SKC,0.01,VWS V14.01,2013-05-22 14:35:00,
2013-05-22 09:40:00,51.9,51.4,29.59,NE,34,0.0,0.0,98,0.00,,SKC,0.01,VWS V14.01,2013-05-22 14:40:00,
2013-05-22 09:45:00,51.9,51.4,29.60,ENE,78,0.0,1.0,98,0.00,,SKC,0.01,VWS V14.01,2013-05-22 14:45:00,
2013-05-22 09:50:00,52.2,51.7,29.60,NW,311,0.0,0.0,98,0.00,,SKC,0.01,VWS V14.01,2013-05-22 14:50:00,
2013-05-22 09:55:00,52.2,51.7,29.60,NE,48,1.0,1.0,98,0.00,,SKC,0.01,VWS V14.01,2013-05-22 14:55:00,
2013-05-22 10:00:00,52.2,51.7,29.60,East,86,0.0,0.0,98,0.00,,SKC,0.01,VWS V14.01,2013-05-22 15:00:00,
2013-05-22 10:05:00,52.2,51.7,29.60,ENE,63,0.0,1.0,98,0.00,,SKC,0.01,VWS V14.01,2013-05-22 15:05:00,
2013-05-22 10:10:00,52.1,51.3,29.60,NNE,26,1.0,2.0,97,0.00,,SKC,0.01,VWS V14.01,2013-05-22 15:10:00,
2013-05-22 10:15:00,52.3,51.8,29.60,NW,323,0.0,1.0,98,0.00,,SKC,0.01,VWS V14.01,2013-05-22 15:15:00,
2013-05-22 10:20:00,52.4,51.8,29.60,NNE,12,2.0,2.0,98,0.00,,SKC,0.01,VWS V14.01,2013-05-22 15:20:00,
2013-05-22 10:25:00,52.5,51.7,29.60,East,100,1.0,1.0,97,0.00,,SKC,0.01,VWS V14.01,2013-05-22 15:25:00,
2013-05-22 10:30:00,52.6,51.8,29.61,East,91,0.0,0.0,97,0.00,,SKC,0.01,VWS V14.01,2013-05-22 15:30:00,
2013-05-22 10:35:00,52.6,51.8,29.61,NNE,20,1.0,3.0,97,0.00,,SKC,0.01,VWS V14.01,2013-05-22 15:35:00,
2013-05-22 10:40:00,52.7,51.9,29.61,ENE,66,0.0,0.0,97,0.00,,SKC,0.01,VWS V14.01,2013-05-22 15:40:00,
2013-05-22 10:45:00,52.9,52.1,29.61,ENE,57,0.0,0.0,97,0.00,,SKC,0.01,VWS V14.01,2013-05-22 15:45:00,
2013-05-22 10:50:00,53.0,52.2,29.61,East,96,0.0,0.0,97,0.00,,SKC,0.01,VWS V14.01,2013-05-22 15:50:00,
2013-05-22 10:55:00,53.1,52.3,29.61,East,92,0.0,0.0,97,0.00,,SKC,0.01,VWS V14.01,2013-05-22 15:55:00,
2013-05-22 11:00:00,53.2,52.4,29.61,ENE,59,0.0,0.0,97,0.00,,SKC,0.01,VWS V14.01,2013-05-22 16:00:00,
2013-05-22 11:05:00,53.0,52.2,29.61,East,90,0.0,1.0,97,0.00,,SKC,0.01,VWS V14.01,2013-05-22 16:05:00,
2013-05-22 11:10:00,53.0,52.2,29.61,East,88,1.0,2.0,97,0.00,,SKC,0.01,VWS V14.01,2013-05-22 16:10:00,
2013-05-22 11:15:00,53.0,52.2,29.62,East,84,2.0,3.0,97,0.00,,SKC,0.01,VWS V14.01,2013-05-22 16:15:00,
2013-05-22 11:21:00,53.0,52.2,29.62,ENE,61,0.0,2.0,97,0.00,,SKC,0.01,VWS V14.01,2013-05-22 16:21:00,
2013-05-22 11:26:00,53.1,52.3,29.62,NE,44,2.0,3.0,97,0.00,,SKC,0.01,VWS V14.01,2013-05-22 16:26:00,
2013-05-22 11:31:00,53.1,52.0,29.61,East,98,2.0,5.0,96,0.00,,SKC,0.01,VWS V14.01,2013-05-22 16:31:00,
2013-05-22 11:36:00,53.2,52.1,29.61,ENE,65,0.0,0.0,96,0.00,,SKC,0.01,VWS V14.01,2013-05-22 16:36:00,
2013-05-22 11:41:00,53.4,52.3,29.61,East,92,0.0,4.0,96,0.00,,SKC,0.01,VWS V14.01,2013-05-22 16:41:00,
2013-05-22 11:46:00,53.4,52.3,29.60,ENE,69,4.0,6.0,96,0.00,,SKC,0.01,VWS V14.01,2013-05-22 16:46:00,
2013-05-22 11:51:00,53.4,52.3,29.60,NW,321,2.0,3.0,96,0.00,,SKC,0.01,VWS V14.01,2013-05-22 16:51:00,
2013-05-22 11:56:00,53.4,52.3,29.60,East,88,1.0,3.0,96,0.00,,SKC,0.01,VWS V14.01,2013-05-22 16:56:00,
2013-05-22 12:01:00,53.4,52.3,29.61,NNE,32,3.0,5.0,96,0.00,,SKC,0.01,VWS V14.01,2013-05-22 17:01:00,
2013-05-22 12:06:00,53.2,51.8,29.61,SE,129,1.0,2.0,95,0.00,,SKC,0.01,VWS V14.01,2013-05-22 17:06:00,
2013-05-22 12:11:00,53.1,51.7,29.61,NNE,25,1.0,2.0,95,0.00,,SKC,0.01,VWS V14.01,2013-05-22 17:11:00,
2013-05-22 12:16:00,53.2,51.8,29.62,NNE,29,2.0,2.0,95,0.00,,SKC,0.01,VWS V14.01,2013-05-22 17:16:00,
2013-05-22 12:21:00,53.3,51.9,29.62,ENE,60,3.0,3.0,95,0.00,,SKC,0.01,VWS V14.01,2013-05-22 17:21:00,
2013-05-22 12:26:00,53.3,51.6,29.62,North,10,2.0,3.0,94,0.00,,SKC,0.01,VWS V14.01,2013-05-22 17:26:00,
2013-05-22 12:31:00,53.4,51.7,29.62,NE,46,1.0,2.0,94,0.00,,SKC,0.01,VWS V14.01,2013-05-22 17:31:00,
2013-05-22 12:36:00,53.5,51.8,29.62,North,360,1.0,2.0,94,0.00,,SKC,0.01,VWS V14.01,2013-05-22 17:36:00,
2013-05-22 12:41:00,53.6,51.9,29.62,ENE,67,2.0,2.0,94,0.00,,SKC,0.01,VWS V14.01,2013-05-22 17:41:00,
2013-05-22 12:46:00,53.7,52.0,29.62,ENE,76,1.0,4.0,94,0.00,,SKC,0.01,VWS V14.01,2013-05-22 17:46:00,
2013-05-22 12:51:00,53.7,51.7,29.62,NE,50,1.0,4.0,93,0.00,,SKC,0.01,VWS V14.01,2013-05-22 17:51:00,
2013-05-22 12:56:00,53.6,51.3,29.62,NE,46,3.0,4.0,92,0.00,,SKC,0.01,VWS V14.01,2013-05-22 17:56:00,
2013-05-22 13:01:00,53.2,51.2,29.62,NW,307,2.0,3.0,93,0.00,,SKC,0.01,VWS V14.01,2013-05-22 18:01:00,
2013-05-22 13:06:00,53.1,51.1,29.62,East,98,5.0,5.0,93,0.00,,SKC,0.01,VWS V14.01,2013-05-22 18:06:00,
2013-05-22 13:11:00,53.1,51.1,29.62,NE,34,3.0,9.0,93,0.00,,SKC,0.01,VWS V14.01,2013-05-22 18:11:00,
2013-05-22 13:16:00,53.1,51.1,29.62,ENE,57,1.0,3.0,93,0.00,,SKC,0.01,VWS V14.01,2013-05-22 18:16:00,
2013-05-22 13:21:00,53.2,51.2,29.62,ENE,62,4.0,4.0,93,0.00,,SKC,0.01,VWS V14.01,2013-05-22 18:21:00,
2013-05-22 13:26:00,53.3,51.3,29.62,NE,34,0.0,2.0,93,0.00,,SKC,0.01,VWS V14.01,2013-05-22 18:26:00,
2013-05-22 13:31:00,53.4,51.4,29.62,North,360,2.0,2.0,93,0.00,,SKC,0.01,VWS V14.01,2013-05-22 18:31:00,
2013-05-22 13:36:00,53.6,51.3,29.62,East,94,0.0,2.0,92,0.00,,SKC,0.01,VWS V14.01,2013-05-22 18:36:00,
2013-05-22 13:41:00,53.7,51.4,29.62,East,101,2.0,2.0,92,0.00,,SKC,0.01,VWS V14.01,2013-05-22 18:41:00,
2013-05-22 13:46:00,53.7,51.4,29.62,NNE,29,3.0,4.0,92,0.00,,SKC,0.01,VWS V14.01,2013-05-22 18:46:00,
2013-05-22 13:51:00,53.8,51.5,29.62,ENE,60,4.0,4.0,92,0.00,,SKC,0.01,VWS V14.01,2013-05-22 18:51:00,
2013-05-22 13:56:00,53.8,51.2,29.62,NE,43,4.0,4.0,91,0.00,,SKC,0.01,VWS V14.01,2013-05-22 18:56:00,
2013-05-22 14:02:00,53.7,51.4,29.62,East,82,1.0,4.0,92,0.00,,SKC,0.01,VWS V14.01,2013-05-22 19:02:00,
2013-05-22 14:06:00,53.7,51.4,29.62,ENE,63,1.0,1.0,92,0.00,,SKC,0.01,VWS V14.01,2013-05-22 19:06:00,
2013-05-22 14:12:00,53.9,51.3,29.62,NE,37,0.0,3.0,91,0.00,,SKC,0.01,VWS V14.01,2013-05-22 19:12:00,
2013-05-22 14:17:00,53.8,51.2,29.63,NE,55,0.0,3.0,91,0.00,,SKC,0.01,VWS V14.01,2013-05-22 19:17:00,
2013-05-22 14:22:00,53.7,51.1,29.63,ESE,111,1.0,2.0,91,0.00,,SKC,0.01,VWS V14.01,2013-05-22 19:22:00,
2013-05-22 14:27:00,53.6,51.0,29.63,NNE,29,1.0,4.0,91,0.00,,SKC,0.01,VWS V14.01,2013-05-22 19:27:00,
2013-05-22 14:32:00,53.5,50.9,29.63,East,95,1.0,2.0,91,0.00,,SKC,0.01,VWS V14.01,2013-05-22 19:32:00,
2013-05-22 14:37:00,53.6,51.0,29.63,NE,55,1.0,3.0,91,0.00,,SKC,0.01,VWS V14.01,2013-05-22 19:37:00,
2013-05-22 14:42:00,53.4,50.8,29.63,ESE,115,0.0,5.0,91,0.00,,SKC,0.01,VWS V14.01,2013-05-22 19:42:00,
2013-05-22 14:47:00,53.3,50.7,29.64,NE,41,2.0,3.0,91,0.00,,SKC,0.01,VWS V14.01,2013-05-22 19:47:00,
2013-05-22 14:52:00,53.1,50.5,29.64,NE,55,4.0,6.0,91,0.00,,SKC,0.01,VWS V14.01,2013-05-22 19:52:00,
2013-05-22 14:57:00,52.9,50.3,29.64,NNE,24,4.0,5.0,91,0.00,,SKC,0.01,VWS V14.01,2013-05-22 19:57:00,
2013-05-22 15:02:00,52.8,50.2,29.64,NE,34,3.0,6.0,91,0.00,,SKC,0.01,VWS V14.01,2013-05-22 20:02:00,
2013-05-22 15:07:00,52.7,50.2,29.64,East,92,2.0,4.0,91,0.00,,SKC,0.01,VWS V14.01,2013-05-22 20:07:00,
2013-05-22 15:12:00,52.7,50.2,29.64,NE,51,0.0,4.0,91,0.00,,SKC,0.01,VWS V14.01,2013-05-22 20:12:00,
2013-05-22 15:17:00,52.7,50.2,29.64,NNE,32,2.0,4.0,91,0.00,,SKC,0.01,VWS V14.01,2013-05-22 20:17:00,
2013-05-22 15:22:00,52.6,50.0,29.64,ENE,67,2.0,6.0,91,0.00,,SKC,0.01,VWS V14.01,2013-05-22 20:22:00,
2013-05-22 15:27:00,52.5,50.0,29.64,ENE,59,2.0,6.0,91,0.00,,SKC,0.01,VWS V14.01,2013-05-22 20:27:00,
2013-05-22 15:32:00,52.5,50.0,29.64,NNW,335,1.0,2.0,91,0.00,,SKC,0.01,VWS V14.01,2013-05-22 20:32:00,
2013-05-22 15:37:00,52.6,50.0,29.64,NE,44,1.0,2.0,91,0.00,,SKC,0.01,VWS V14.01,2013-05-22 20:37:00,
2013-05-22 15:42:00,52.4,49.8,29.64,ENE,78,0.0,4.0,91,0.00,,SKC,0.01,VWS V14.01,2013-05-22 20:42:00,
2013-05-22 15:47:00,52.3,49.8,29.66,East,84,1.0,4.0,91,0.00,,SKC,0.01,VWS V14.01,2013-05-22 20:47:00,
2013-05-22 15:52:00,52.3,50.0,29.66,NE,46,0.0,1.0,92,0.00,,SKC,0.01,VWS V14.01,2013-05-22 20:52:00,
2013-05-22 15:57:00,52.4,50.2,29.66,NNW,336,0.0,2.0,92,0.00,,SKC,0.01,VWS V14.01,2013-05-22 20:57:00,
2013-05-22 16:02:00,52.1,49.6,29.66,East,88,1.0,5.0,91,0.00,,SKC,0.01,VWS V14.01,2013-05-22 21:02:00,
2013-05-22 16:07:00,51.9,49.7,29.66,NNE,12,1.0,5.0,92,0.00,,SKC,0.01,VWS V14.01,2013-05-22 21:07:00,
2013-05-22 16:12:00,51.6,49.7,29.66,East,86,2.0,4.0,93,0.00,,SKC,0.01,VWS V14.01,2013-05-22 21:12:00,
2013-05-22 16:17:00,51.3,49.6,29.67,NE,34,1.0,2.0,94,0.01,,SKC,0.02,VWS V14.01,2013-05-22 21:17:00,
2013-05-22 16:22:00,51.0,49.3,29.67,NE,49,2.0,7.0,94,0.01,,SKC,0.02,VWS V14.01,2013-05-22 21:22:00,
2013-05-22 16:27:00,50.8,49.1,29.67,NE,44,2.0,3.0,94,0.01,,SKC,0.02,VWS V14.01,2013-05-22 21:27:00,
2013-05-22 16:32:00,50.7,49.3,29.67,East,88,0.0,2.0,95,0.01,,SKC,0.02,VWS V14.01,2013-05-22 21:32:00,
2013-05-22 16:37:00,50.6,49.2,29.67,ENE,78,0.0,3.0,95,0.01,,SKC,0.02,VWS V14.01,2013-05-22 21:37:00,
2013-05-22 16:42:00,50.6,49.2,29.67,NW,314,0.0,3.0,95,0.01,,SKC,0.02,VWS V14.01,2013-05-22 21:42:00,
2013-05-22 16:47:00,50.4,49.0,29.68,ESE,105,0.0,2.0,95,0.02,,SKC,0.03,VWS V14.01,2013-05-22 21:47:00,
2013-05-22 16:52:00,50.3,48.9,29.68,NNE,18,2.0,3.0,95,0.02,,SKC,0.03,VWS V14.01,2013-05-22 21:52:00,
2013-05-22 16:58:00,50.4,49.3,29.68,West,275,1.0,1.0,96,0.02,,SKC,0.03,VWS V14.01,2013-05-22 21:58:00,
2013-05-22 17:03:00,50.2,49.1,29.68,SW,230,1.0,2.0,96,0.02,,SKC,0.03,VWS V14.01,2013-05-22 22:03:00,
2013-05-22 17:08:00,50.1,49.0,29.68,NE,39,0.0,0.0,96,0.02,,SKC,0.03,VWS V14.01,2013-05-22 22:08:00,
2013-05-22 17:13:00,50.0,48.6,29.68,NNE,27,1.0,4.0,95,0.02,,SKC,0.03,VWS V14.01,2013-05-22 22:13:00,
2013-05-22 17:18:00,49.7,48.3,29.69,ENE,75,4.0,5.0,95,0.03,,SKC,0.04,VWS V14.01,2013-05-22 22:18:00,
2013-05-22 17:23:00,49.6,48.5,29.69,ENE,57,0.0,4.0,96,0.02,,SKC,0.04,VWS V14.01,2013-05-22 22:23:00,
2013-05-22 17:28:00,49.5,48.4,29.69,NNE,30,0.0,3.0,96,0.02,,SKC,0.04,VWS V14.01,2013-05-22 22:28:00,
2013-05-22 17:33:00,49.3,48.2,29.70,NE,54,1.0,4.0,96,0.02,,SKC,0.04,VWS V14.01,2013-05-22 22:33:00,
2013-05-22 17:38:00,49.2,48.1,29.70,NNW,331,1.0,3.0,96,0.02,,SKC,0.04,VWS V14.01,2013-05-22 22:38:00,
2013-05-22 17:43:00,49.1,48.0,29.70,NNE,17,0.0,8.0,96,0.03,,SKC,0.05,VWS V14.01,2013-05-22 22:43:00,
2013-05-22 17:48:00,49.0,47.9,29.70,North,351,2.0,3.0,96,0.02,,SKC,0.05,VWS V14.01,2013-05-22 22:48:00,
2013-05-22 17:53:00,48.9,47.8,29.70,NNE,31,0.0,5.0,96,0.02,,SKC,0.05,VWS V14.01,2013-05-22 22:53:00,
2013-05-22 17:58:00,49.0,47.9,29.70,ENE,71,0.0,3.0,96,0.02,,SKC,0.05,VWS V14.01,2013-05-22 22:58:00,
2013-05-22 18:03:00,48.9,47.8,29.70,NNW,336,2.0,4.0,96,0.03,,SKC,0.06,VWS V14.01,2013-05-22 23:03:00,
2013-05-22 18:08:00,48.8,47.7,29.70,NE,48,4.0,5.0,96,0.03,,SKC,0.06,VWS V14.01,2013-05-22 23:08:00,
2013-05-22 18:13:00,48.5,47.4,29.70,ENE,65,2.0,4.0,96,0.03,,SKC,0.06,VWS V14.01,2013-05-22 23:13:00,
2013-05-22 18:18:00,48.4,47.3,29.70,NNW,346,1.0,4.0,96,0.03,,SKC,0.06,VWS V14.01,2013-05-22 23:18:00,
2013-05-22 18:23:00,48.3,47.2,29.70,NNW,334,1.0,3.0,96,0.02,,SKC,0.06,VWS V14.01,2013-05-22 23:23:00,
2013-05-22 18:28:00,48.1,47.0,29.70,ENE,60,1.0,4.0,96,0.02,,SKC,0.06,VWS V14.01,2013-05-22 23:28:00,
2013-05-22 18:33:00,48.0,46.9,29.71,NE,56,1.0,4.0,96,0.02,,SKC,0.06,VWS V14.01,2013-05-22 23:33:00,
2013-05-22 18:38:00,48.0,46.9,29.71,NNW,348,2.0,3.0,96,0.03,,SKC,0.07,VWS V14.01,2013-05-22 23:38:00,
2013-05-22 18:43:00,48.0,47.2,29.71,ENE,63,1.0,3.0,97,0.02,,SKC,0.07,VWS V14.01,2013-05-22 23:43:00,
2013-05-22 18:48:00,47.9,46.8,29.72,NE,42,2.0,5.0,96,0.02,,SKC,0.07,VWS V14.01,2013-05-22 23:48:00,
2013-05-22 18:53:00,48.0,47.2,29.72,ENE,60,0.0,3.0,97,0.02,,SKC,0.07,VWS V14.01,2013-05-22 23:53:00,
2013-05-22 18:58:00,47.9,47.1,29.72,East,98,1.0,3.0,97,0.02,,SKC,0.07,VWS V14.01,2013-05-22 23:58:00,
2013-05-22 19:03:00,47.9,46.8,29.72,NNE,32,0.0,4.0,96,0.02,,SKC,0.07,VWS V14.01,2013-05-23 00:03:00,
2013-05-22 19:08:00,47.9,46.8,29.72,NNW,345,1.0,3.0,96,0.01,,SKC,0.07,VWS V14.01,2013-05-23 00:08:00,
2013-05-22 19:13:00,47.9,47.1,29.72,West,276,0.0,1.0,97,0.01,,SKC,0.07,VWS V14.01,2013-05-23 00:13:00,
2013-05-22 19:18:00,47.9,47.1,29.73,NE,44,2.0,4.0,97,0.01,,SKC,0.07,VWS V14.01,2013-05-23 00:18:00,
2013-05-22 19:23:00,47.9,46.8,29.73,NNE,32,0.0,4.0,96,0.01,,SKC,0.07,VWS V14.01,2013-05-23 00:23:00,
2013-05-22 19:28:00,47.9,46.8,29.73,ENE,65,0.0,2.0,96,0.01,,SKC,0.07,VWS V14.01,2013-05-23 00:28:00,
2013-05-22 19:34:00,47.9,46.8,29.73,ENE,71,2.0,5.0,96,0.01,,SKC,0.07,VWS V14.01,2013-05-23 00:34:00,
2013-05-22 19:39:00,47.9,46.8,29.73,NNE,27,5.0,5.0,96,0.00,,SKC,0.07,VWS V14.01,2013-05-23 00:39:00,
2013-05-22 19:44:00,47.9,46.8,29.73,NW,321,0.0,3.0,96,0.00,,SKC,0.07,VWS V14.01,2013-05-23 00:44:00,
2013-05-22 19:49:00,47.9,47.1,29.74,NE,38,0.0,4.0,97,0.00,,SKC,0.07,VWS V14.01,2013-05-23 00:49:00,
2013-05-22 19:54:00,47.9,47.1,29.74,NNE,21,1.0,5.0,97,0.00,,SKC,0.07,VWS V14.01,2013-05-23 00:54:00,
2013-05-22 19:59:00,47.9,47.1,29.74,NNE,13,2.0,4.0,97,0.01,,SKC,0.08,VWS V14.01,2013-05-23 00:59:00,
2013-05-22 20:04:00,47.9,47.1,29.74,NNW,345,1.0,6.0,97,0.01,,SKC,0.08,VWS V14.01,2013-05-23 01:04:00,
2013-05-22 20:09:00,47.9,47.1,29.74,ENE,76,4.0,4.0,97,0.01,,SKC,0.08,VWS V14.01,2013-05-23 01:09:00,
2013-05-22 20:14:00,47.9,47.1,29.74,ENE,78,1.0,3.0,97,0.01,,SKC,0.08,VWS V14.01,2013-05-23 01:14:00,
2013-05-22 20:19:00,47.9,47.1,29.75,NNE,19,1.0,5.0,97,0.01,,SKC,0.08,VWS V14.01,2013-05-23 01:19:00,
2013-05-22 20:24:00,47.9,47.1,29.75,ENE,71,2.0,5.0,97,0.02,,SKC,0.09,VWS V14.01,2013-05-23 01:24:00,
2013-05-22 20:29:00,47.9,47.1,29.75,NW,321,0.0,3.0,97,0.02,,SKC,0.09,VWS V14.01,2013-05-23 01:29:00,
2013-05-22 20:34:00,48.0,47.2,29.75,East,87,1.0,2.0,97,0.02,,SKC,0.09,VWS V14.01,2013-05-23 01:34:00,
2013-05-22 20:39:00,48.1,47.3,29.75,NE,47,3.0,6.0,97,0.02,,SKC,0.09,VWS V14.01,2013-05-23 01:39:00,
2013-05-22 20:44:00,48.2,47.4,29.76,ENE,58,3.0,5.0,97,0.02,,SKC,0.09,VWS V14.01,2013-05-23 01:44:00,
2013-05-22 20:49:00,48.2,47.4,29.76,NE,50,0.0,5.0,97,0.02,,SKC,0.09,VWS V14.01,2013-05-23 01:49:00,
2013-05-22 20:54:00,48.3,47.5,29.76,NE,41,1.0,8.0,97,0.02,,SKC,0.09,VWS V14.01,2013-05-23 01:54:00,
2013-05-22 20:59:00,48.4,47.6,29.77,NNE,24,1.0,5.0,97,0.01,,SKC,0.09,VWS V14.01,2013-05-23 01:59:00,
2013-05-22 21:04:00,48.4,47.6,29.77,North,350,0.0,3.0,97,0.01,,SKC,0.09,VWS V14.01,2013-05-23 02:04:00,
2013-05-22 21:09:00,48.5,47.7,29.77,NE,36,4.0,4.0,97,0.01,,SKC,0.09,VWS V14.01,2013-05-23 02:09:00,
2013-05-22 21:14:00,48.5,47.7,29.77,NE,55,2.0,6.0,97,0.01,,SKC,0.09,VWS V14.01,2013-05-23 02:14:00,
2013-05-22 21:19:00,48.6,47.8,29.77,East,101,1.0,10.0,97,0.01,,SKC,0.09,VWS V14.01,2013-05-23 02:19:00,
2013-05-22 21:24:00,48.6,47.8,29.77,NE,48,0.0,2.0,97,0.01,,SKC,0.09,VWS V14.01,2013-05-23 02:24:00,
2013-05-22 21:29:00,48.7,47.9,29.78,ENE,59,4.0,9.0,97,0.00,,SKC,0.09,VWS V14.01,2013-05-23 02:29:00,
2013-05-22 21:34:00,48.6,47.8,29.78,North,350,0.0,5.0,97,0.00,,SKC,0.09,VWS V14.01,2013-05-23 02:34:00,
2013-05-22 21:39:00,48.7,47.9,29.78,WNW,296,0.0,8.0,97,0.00,,SKC,0.09,VWS V14.01,2013-05-23 02:39:00,
2013-05-22 21:44:00,48.7,47.9,29.78,East,84,3.0,4.0,97,0.01,,SKC,0.10,VWS V14.01,2013-05-23 02:44:00,
2013-05-22 21:49:00,48.6,47.8,29.78,NE,34,1.0,7.0,97,0.01,,SKC,0.10,VWS V14.01,2013-05-23 02:49:00,
2013-05-22 21:54:00,48.5,47.4,29.78,NNE,26,1.0,8.0,96,0.01,,SKC,0.10,VWS V14.01,2013-05-23 02:54:00,
2013-05-22 21:59:00,48.5,47.4,29.79,ENE,60,3.0,4.0,96,0.01,,SKC,0.10,VWS V14.01,2013-05-23 02:59:00,
2013-05-22 22:05:00,48.5,47.4,29.79,ENE,69,0.0,3.0,96,0.01,,SKC,0.10,VWS V14.01,2013-05-23 03:05:00,
2013-05-22 22:10:00,48.4,47.3,29.79,NNW,332,3.0,4.0,96,0.01,,SKC,0.10,VWS V14.01,2013-05-23 03:10:00,
2013-05-22 22:15:00,48.2,47.1,29.80,ESE,119,2.0,9.0,96,0.02,,SKC,0.11,VWS V14.01,2013-05-23 03:15:00,
2013-05-22 22:20:00,48.1,47.0,29.80,ENE,71,2.0,9.0,96,0.02,,SKC,0.11,VWS V14.01,2013-05-23 03:20:00,
2013-05-22 22:25:00,47.9,46.5,29.80,NNE,15,1.0,6.0,95,0.02,,SKC,0.11,VWS V14.01,2013-05-23 03:25:00,
2013-05-22 22:30:00,47.7,46.3,29.80,ENE,74,3.0,8.0,95,0.03,,SKC,0.12,VWS V14.01,2013-05-23 03:30:00,
2013-05-22 22:35:00,47.5,46.1,29.80,NNE,15,2.0,7.0,95,0.03,,SKC,0.12,VWS V14.01,2013-05-23 03:35:00,
2013-05-22 22:40:00,47.3,46.2,29.80,ENE,62,2.0,3.0,96,0.03,,SKC,0.12,VWS V14.01,2013-05-23 03:40:00,
2013-05-22 22:45:00,47.2,46.1,29.81,NE,34,1.0,1.0,96,0.02,,SKC,0.12,VWS V14.01,2013-05-23 03:45:00,
2013-05-22 22:50:00,46.9,45.8,29.81,ESE,104,3.0,7.0,96,0.03,,SKC,0.13,VWS V14.01,2013-05-23 03:50:00,
2013-05-22 22:55:00,46.5,45.2,29.81,NE,46,4.0,8.0,95,0.03,,SKC,0.13,VWS V14.01,2013-05-23 03:55:00,
2013-05-22 23:00:00,46.3,45.0,29.82,ENE,58,2.0,5.0,95,0.03,,SKC,0.13,VWS V14.01,2013-05-23 04:00:00,
2013-05-22 23:01:00,46.2,44.8,29.82,ENE,59,5.0,7.0,95,0.03,,SKC,0.13,VWS V14.01,2013-05-23 04:01:00,
2013-05-22 23:02:00,46.1,44.8,29.82,ENE,67,5.0,7.0,95,0.03,,SKC,0.13,VWS V14.01,2013-05-23 04:02:00,
2013-05-22 23:07:00,45.9,44.5,29.82,NNE,13,4.0,8.0,95,0.03,,SKC,0.13,VWS V14.01,2013-05-23 04:07:00,
2013-05-22 23:12:00,45.7,44.3,29.82,NNE,17,1.0,4.0,95,0.03,,SKC,0.13,VWS V14.01,2013-05-23 04:12:00,
2013-05-22 23:17:00,45.5,44.2,29.82,NE,56,1.0,2.0,95,0.02,,SKC,0.13,VWS V14.01,2013-05-23 04:17:00,
2013-05-22 23:22:00,45.4,44.0,29.82,East,90,2.0,3.0,95,0.02,,SKC,0.13,VWS V14.01,2013-05-23 04:22:00,
2013-05-22 23:27:00,45.2,43.9,29.82,East,88,2.0,4.0,95,0.02,,SKC,0.13,VWS V14.01,2013-05-23 04:27:00,
2013-05-22 23:32:00,45.1,43.8,29.83,NNE,20,1.0,2.0,95,0.01,,SKC,0.13,VWS V14.01,2013-05-23 04:32:00,
2013-05-22 23:37:00,45.0,43.7,29.83,ESE,112,1.0,2.0,95,0.01,,SKC,0.13,VWS V14.01,2013-05-23 04:37:00,
2013-05-22 23:42:00,44.9,43.6,29.83,NE,43,5.0,5.0,95,0.01,,SKC,0.13,VWS V14.01,2013-05-23 04:42:00,
2013-05-22 23:47:00,44.8,43.5,29.84,NE,48,0.0,4.0,95,0.01,,SKC,0.13,VWS V14.01,2013-05-23 04:47:00,
2013-05-22 23:52:00,44.8,43.7,29.84,NE,40,2.0,3.0,96,0.00,,SKC,0.13,VWS V14.01,2013-05-23 04:52:00,
2013-05-22 23:57:00,44.7,43.6,29.84,NE,55,4.0,7.0,96,0.01,,SKC,0.14,VWS V14.01,2013-05-23 04:57:00,